Moron de la Frontera, Spain

3:23 AM CEST on April 25, 2017 (GMT +0200)
Moron Air Base

Weather History for LEMO - November, 2012

Change the Weather History Date:

Wednesday, November 28, 2012

  Actual Average Record
Temperature  
Mean Temperature 47 °F -  
Max Temperature 55 °F 60 °F 78 °F (2000)
Min Temperature 39 °F 42 °F 35 °F (2008)
Degree Days  
Heating Degree Days 18    
Moisture  
Dew Point 40 °F    
Average Humidity 80    
Maximum Humidity 100    
Minimum Humidity 54    
Precipitation  
Precipitation 0.00 in - - ()
Sea Level Pressure  
Sea Level Pressure 29.92 in    
Wind  
Wind Speed 4 mph ()    
Max Wind Speed 8 mph    
Max Gust Speed -    
Visibility 6.2 miles    
Events      
Averages and records for this station are not official NWS values.
T = Trace of Precipitation, MM = Missing Value Source: Averaged Metar Reports

Daily Weather History Graph

Daily Weather History Graph

Search for Another Location

Airport or City:

Trip Planner

Search our weather history database for the weather conditions in past years. The results will help you decide how hot, cold, wet, or windy it might be!

Date:

Astronomy

Nov. 28, 2012 Rise Set
Actual Time 8:14 AM CET 6:06 PM CET
Civil Twilight 7:46 AM CET 6:34 PM CET
Nautical Twilight 7:14 AM CET 7:06 PM CET
Astronomical Twilight 6:42 AM CET 7:37 PM CET
Moon 6:10 PM CET (11/28) 8:00 AM CET (11/28)
Length of Visible Light 10h 48m
Length of Day
9h 51m
Full, 100% of the Moon is Illuminated
Nov 28
Full
Nov 28
Full
Dec 6
Last Quarter
Dec 13
New
Dec 20
First Quarter

Hourly Weather History & Observations

Time (CET) Temp. Windchill Dew Point Humidity Pressure Visibility Wind Dir Wind Speed Gust Speed Precip Events Conditions
12:00 AM 46.4 °F 42.9 °F 41.0 °F 81% 29.89 in - West 6.9 mph - N/A   Clear
1:00 AM 44.6 °F 41.4 °F 39.2 °F 81% 29.86 in - West 5.8 mph - N/A   Clear
2:00 AM 42.8 °F 41.1 °F 41.0 °F 93% 29.86 in - WSW 3.5 mph - N/A   Clear
3:00 AM 42.8 °F 40.1 °F 41.0 °F 93% 29.86 in - WSW 4.6 mph - N/A   Clear
4:00 AM 44.6 °F 42.2 °F 42.8 °F 93% 29.86 in - West 4.6 mph - N/A   Clear
5:00 AM 42.8 °F 41.1 °F 41.0 °F 93% 29.86 in - West 3.5 mph - N/A   Clear
6:00 AM 39.2 °F 37.0 °F 39.2 °F 100% 29.86 in - West 3.5 mph - N/A   Clear
7:00 AM 39.2 °F - 39.2 °F 100% 29.89 in - Calm Calm - N/A   Clear
8:00 AM 39.2 °F 37.0 °F 37.4 °F 93% 29.89 in - SSW 3.5 mph - N/A   Clear
9:00 AM 39.2 °F - 39.2 °F 100% 29.92 in - Variable 2.3 mph - N/A   Clear
10:00 AM 46.4 °F - 44.6 °F 93% 29.95 in - Variable 2.3 mph - N/A   Clear
11:00 AM 51.8 °F - 41.0 °F 67% 29.98 in 6.2 mi West 3.5 mph - N/A   Partly Cloudy
12:00 PM 51.8 °F - 41.0 °F 67% 29.98 in 6.2 mi West 3.5 mph - N/A   Partly Cloudy
1:00 PM 53.6 °F - 39.2 °F 58% 29.95 in 6.2 mi WNW 3.5 mph - N/A   Partly Cloudy
2:00 PM 53.6 °F - 39.2 °F 58% 29.95 in 6.2 mi NW 6.9 mph - N/A   Partly Cloudy
3:00 PM 53.6 °F - 39.2 °F 58% 29.92 in 6.2 mi NW 8.1 mph - N/A   Partly Cloudy
4:00 PM 55.4 °F - 39.2 °F 54% 29.92 in 6.2 mi NW 6.9 mph - N/A   Partly Cloudy
5:00 PM 55.4 °F - 41.0 °F 58% 29.92 in - West 6.9 mph - N/A   Clear
6:00 PM 50.0 °F - 42.8 °F 76% 29.92 in - SW 5.8 mph - N/A   Clear
7:00 PM 48.2 °F - 41.0 °F 76% 29.95 in - SW 8.1 mph - N/A   Clear
8:00 PM 48.2 °F - 41.0 °F 76% 29.95 in - West 5.8 mph - N/A   Clear
9:00 PM 44.6 °F 42.2 °F 39.2 °F 81% 29.95 in - West 4.6 mph - N/A   Clear
10:00 PM 42.8 °F - 37.4 °F 81% 29.98 in - Variable 1.2 mph - N/A   Clear
11:00 PM 42.8 °F 40.1 °F 37.4 °F 81% 29.98 in - South 4.6 mph - N/A   Clear